Dades meteomassalio
Diari Summary for Maig 4, 2017 Units:  English    Metric   Both
« Previous Day
Next Day »
Diari Semanal Mensual Anual Personalitzat
  Maxima: Minima: Mijana:
Temperatura: TemperatureC °F 7.6 °F 17.3 °F
Rosada: DewpointC °F 5.9 °F 10.5 °F
Humitat: Humidity % 42 % 66 %
Velocitat del vent: WindSpeedKMH mph 0.0 mph 4.2 mph
Racha vent: WindSpeedGustKMH mph - -
Vent:- - East
Pressio: PressurehPa in 1008.7 in -
Pluja: 0.0 in    
Historical Graphs
 
 
Tabular Data for Maig 4, 2017
Time Temperature Dew Point Pressure Wind Wind Speed Wind Gust Humidity Rainfall Rate (Hourly) solar Conditions
TemperatureC °F DewpointC °F PressurehPa in Calm     Humidity % HourlyPrecipMM in SolarRadiationWatts/m^2 W/m2 Conditions
00:03 14.5 °F 10.1 °F 1014.8 in Calm     75 % 0.0 in 0.0 W/m2 CLR
00:08 14.4 °F 10.1 °F 1014.8 in Calm     75 % 0.0 in 0.0 W/m2 CLR
00:10 14.4 °F 10.1 °F 1014.8 in Calm     75 % 0.0 in 0.0 W/m2 CLR
00:11 14.4 °F 10.1 °F 1014.8 in Calm     75 % 0.0 in 0.0 W/m2 CLR
00:16 14.3 °F 9.9 °F 1014.8 in Calm     75 % 0.0 in 0.0 W/m2 CLR
00:21 14.3 °F 10.2 °F 1014.4 in Calm     76 % 0.0 in 0.0 W/m2 CLR
00:26 14.3 °F 10.1 °F 1014.4 in Calm     76 % 0.0 in 0.0 W/m2 CLR
00:31 14.2 °F 10.0 °F 1014.4 in Calm   0.2 mph 76 % 0.0 in 0.0 W/m2 CLR
00:36 14.2 °F 10.2 °F 1014.4 in Calm     77 % 0.0 in 0.0 W/m2 CLR
00:41 14.2 °F 10.2 °F 1014.4 in Calm     77 % 0.0 in 0.0 W/m2 CLR
00:46 14.1 °F 10.1 °F 1014.1 in Calm     77 % 0.0 in 0.0 W/m2 CLR
00:51 14.1 °F 10.1 °F 1014.4 in Calm     77 % 0.0 in 0.0 W/m2 CLR
00:56 14.0 °F 10.1 °F 1014.1 in Calm     77 % 0.0 in 0.0 W/m2 CLR
01:01 14.0 °F 10.1 °F 1014.1 in Calm     77 % 0.0 in 0.0 W/m2 CLR
01:06 13.9 °F 10.0 °F 1014.1 in Calm     77 % 0.0 in 0.0 W/m2 CLR
01:11 13.9 °F 9.9 °F 1014.4 in Calm     77 % 0.0 in 0.0 W/m2 CLR
01:16 13.9 °F 10.0 °F 1014.1 in Calm     77 % 0.0 in 0.0 W/m2 CLR
01:21 14.0 °F 10.1 °F 1014.1 in Calm     77 % 0.0 in 0.0 W/m2 CLR
01:26 13.9 °F 10.0 °F 1014.1 in Calm     77 % 0.0 in 0.0 W/m2 CLR
01:31 13.8 °F 9.9 °F 1014.1 in Calm     77 % 0.0 in 0.0 W/m2 CLR
01:36 13.7 °F 9.8 °F 1014.1 in Calm     77 % 0.0 in 0.0 W/m2 CLR
01:41 13.6 °F 9.8 °F 1014.1 in Calm     78 % 0.0 in 0.0 W/m2 CLR
01:46 13.7 °F 9.8 °F 1014.1 in Calm     77 % 0.0 in 0.0 W/m2 CLR
01:51 13.8 °F 9.7 °F 1014.1 in Calm     76 % 0.0 in 0.0 W/m2 CLR
01:56 13.8 °F 9.6 °F 1014.1 in Calm     76 % 0.0 in 0.0 W/m2 CLR
02:01 13.6 °F 9.4 °F 1014.1 in NE 7.4 mph 7.4 mph 76 % 0.0 in 0.0 W/m2 CLR
02:06 13.3 °F 9.4 °F 1014.1 in NE 11.1 mph 11.1 mph 77 % 0.0 in 0.0 W/m2 CLR
02:11 13.3 °F 9.6 °F 1014.1 in ENE 9.3 mph 9.3 mph 78 % 0.0 in 0.0 W/m2 CLR
02:16 13.4 °F 9.4 °F 1014.1 in Calm     77 % 0.0 in 0.0 W/m2 CLR
02:21 13.4 °F 9.2 °F 1013.8 in Calm     76 % 0.0 in 0.0 W/m2 CLR
02:26 13.4 °F 9.2 °F 1013.8 in Calm     76 % 0.0 in 0.0 W/m2 CLR
02:31 13.3 °F 9.4 °F 1013.8 in Calm     77 % 0.0 in 0.0 W/m2 CLR
02:36 13.0 °F 9.1 °F 1013.8 in Calm     77 % 0.0 in 0.0 W/m2 CLR
02:41 12.8 °F 9.1 °F 1013.8 in Calm     78 % 0.0 in 0.0 W/m2 CLR
02:46 12.8 °F 9.1 °F 1013.8 in Calm     78 % 0.0 in 0.0 W/m2 CLR
02:51 12.7 °F 9.2 °F 1013.8 in Calm     79 % 0.0 in 0.0 W/m2 CLR
02:56 12.6 °F 9.1 °F 1013.8 in Calm     79 % 0.0 in 0.0 W/m2 CLR
03:01 12.5 °F 9.2 °F 1013.8 in Calm     80 % 0.0 in 0.0 W/m2 CLR
03:06 12.4 °F 9.3 °F 1013.4 in Calm     81 % 0.0 in 0.0 W/m2 CLR
03:11 12.3 °F 9.0 °F 1013.4 in Calm     80 % 0.0 in 0.0 W/m2 CLR
03:17 12.2 °F 9.1 °F 1013.4 in Calm     81 % 0.0 in 0.0 W/m2 CLR
03:22 12.1 °F 9.1 °F 1013.1 in Calm     82 % 0.0 in 0.0 W/m2 CLR
03:27 12.0 °F 9.2 °F 1013.1 in Calm     83 % 0.0 in 0.0 W/m2 CLR
03:32 12.0 °F 9.2 °F 1013.1 in Calm     83 % 0.0 in 0.0 W/m2 CLR
03:37 11.9 °F 9.1 °F 1013.1 in Calm     83 % 0.0 in 0.0 W/m2 CLR
03:42 11.8 °F 9.2 °F 1013.1 in Calm     84 % 0.0 in 0.0 W/m2 CLR
03:47 11.8 °F 9.2 °F 1013.1 in Calm     84 % 0.0 in 0.0 W/m2 CLR
03:52 11.6 °F 8.8 °F 1013.1 in Calm     83 % 0.0 in 0.0 W/m2 CLR
03:57 11.3 °F 8.6 °F 1013.1 in Calm     83 % 0.0 in 0.0 W/m2 CLR
04:02 11.2 °F 8.4 °F 1013.1 in Calm     83 % 0.0 in 0.0 W/m2 CLR
04:07 11.1 °F 8.3 °F 1013.1 in Calm     83 % 0.0 in 0.0 W/m2 CLR
04:12 10.9 °F 8.3 °F 1013.4 in Calm     84 % 0.0 in 0.0 W/m2 CLR
04:17 10.8 °F 8.4 °F 1013.4 in Calm     85 % 0.0 in 0.0 W/m2 CLR
04:22 10.7 °F 8.3 °F 1013.4 in Calm     85 % 0.0 in 0.0 W/m2 CLR
04:27 10.6 °F 8.2 °F 1013.4 in Calm     85 % 0.0 in 0.0 W/m2 CLR
04:32 10.4 °F 8.1 °F 1013.4 in Calm     85 % 0.0 in 0.0 W/m2 CLR
04:37 10.3 °F 7.9 °F 1013.4 in Calm     85 % 0.0 in 0.0 W/m2 CLR
04:42 10.2 °F 8.0 °F 1013.4 in Calm     86 % 0.0 in 0.0 W/m2 CLR
04:47 10.2 °F 7.9 °F 1013.4 in Calm     86 % 0.0 in 0.0 W/m2 CLR
04:52 10.1 °F 7.9 °F 1013.4 in Calm     86 % 0.0 in 0.0 W/m2 CLR
04:57 9.9 °F 7.5 °F 1013.4 in Calm     85 % 0.0 in 0.0 W/m2 CLR
05:02 9.7 °F 7.3 °F 1013.4 in Calm     85 % 0.0 in 0.0 W/m2 CLR
05:07 9.4 °F 7.1 °F 1013.4 in Calm     85 % 0.0 in 0.0 W/m2 CLR
05:12 9.3 °F 7.1 °F 1013.4 in Calm     86 % 0.0 in 0.0 W/m2 CLR
05:17 9.2 °F 6.9 °F 1013.1 in Calm     86 % 0.0 in 0.0 W/m2 CLR
05:22 9.1 °F 6.8 °F 1013.1 in Calm     86 % 0.0 in 0.0 W/m2 CLR
05:27 9.0 °F 6.8 °F 1013.1 in Calm     86 % 0.0 in 0.0 W/m2 CLR
05:32 8.9 °F 6.8 °F 1013.1 in Calm     87 % 0.0 in 0.0 W/m2 CLR
05:37 8.8 °F 6.7 °F 1013.1 in Calm     87 % 0.0 in 0.0 W/m2 CLR
05:42 8.7 °F 6.6 °F 1013.1 in Calm     87 % 0.0 in 0.0 W/m2 CLR
05:47 8.6 °F 6.5 °F 1013.1 in Calm     87 % 0.0 in 0.0 W/m2 CLR
05:52 8.5 °F 6.6 °F 1013.1 in Calm     88 % 0.0 in 0.0 W/m2 CLR
05:57 8.4 °F 6.5 °F 1013.1 in Calm     88 % 0.0 in 0.0 W/m2 CLR
06:02 8.3 °F 6.4 °F 1013.1 in Calm     88 % 0.0 in 0.0 W/m2 CLR
06:07 8.3 °F 6.4 °F 1013.1 in Calm     88 % 0.0 in 0.0 W/m2 CLR
06:12 8.2 °F 6.3 °F 1013.1 in Calm     88 % 0.0 in 0.0 W/m2 CLR
06:17 8.1 °F 6.2 °F 1013.1 in Calm     88 % 0.0 in 0.0 W/m2 CLR
06:22 8.1 °F 6.3 °F 1013.1 in Calm     89 % 0.0 in 0.0 W/m2 CLR
06:27 8.1 °F 6.3 °F 1013.1 in Calm     89 % 0.0 in 0.0 W/m2 CLR
06:32 8.0 °F 6.3 °F 1013.1 in Calm     89 % 0.0 in 0.0 W/m2 CLR
06:37 7.9 °F 6.2 °F 1013.1 in Calm     89 % 0.0 in 0.0 W/m2 CLR
06:42 7.8 °F 5.9 °F 1013.1 in Calm     88 % 0.0 in 0.0 W/m2 CLR
06:47 7.8 °F 6.1 °F 1012.8 in Calm     89 % 0.0 in 0.0 W/m2 OVC
06:52 7.7 °F 6.0 °F 1012.8 in Calm     89 % 0.0 in 5.0 W/m2 OVC
06:57 7.7 °F 5.9 °F 1013.1 in Calm     89 % 0.0 in 9.0 W/m2 BKN
07:02 7.6 °F 5.9 °F 1013.1 in Calm     89 % 0.0 in 14.0 W/m2 BKN
07:07 7.6 °F 5.9 °F 1013.1 in Calm     89 % 0.0 in 18.0 W/m2 BKN
07:12 7.6 °F 5.9 °F 1013.1 in Calm     89 % 0.0 in 21.0 W/m2 BKN
07:17 7.6 °F 5.9 °F 1013.1 in Calm     89 % 0.0 in 25.0 W/m2 BKN
07:22 7.6 °F 5.9 °F 1013.1 in Calm     89 % 0.0 in 30.0 W/m2 BKN
07:27 7.7 °F 5.9 °F 1013.1 in Calm     89 % 0.0 in 37.0 W/m2 BKN
07:32 7.8 °F 6.1 °F 1013.1 in Calm     89 % 0.0 in 47.0 W/m2 SCT
07:33 7.8 °F 6.1 °F 1013.1 in Calm     89 % 0.0 in 47.0 W/m2 SCT
07:38 7.9 °F 6.2 °F 1013.1 in Calm     89 % 0.0 in 47.0 W/m2 SCT
07:43 8.2 °F 6.5 °F 1013.1 in Calm     89 % 0.0 in 70.0 W/m2 SCT
07:48 8.4 °F 6.6 °F 1013.1 in Calm     88 % 0.0 in 76.0 W/m2 FEW
07:53 8.7 °F 6.8 °F 1013.1 in Calm     88 % 0.0 in 88.0 W/m2 FEW
07:58 8.9 °F 6.9 °F 1013.1 in Calm     87 % 0.0 in 104.0 W/m2 CLR
08:03 9.2 °F 7.2 °F 1013.1 in Calm     87 % 0.0 in 118.0 W/m2 CLR
08:08 9.6 °F 7.4 °F 1013.1 in Calm     86 % 0.0 in 137.0 W/m2 CLR
08:13 9.9 °F 7.6 °F 1013.1 in Calm     85 % 0.0 in 153.0 W/m2 CLR
08:18 10.2 °F 7.6 °F 1013.1 in Calm     84 % 0.0 in 167.0 W/m2 CLR
08:23 10.4 °F 7.7 °F 1013.1 in Calm     83 % 0.0 in 186.0 W/m2 CLR
08:28 10.7 °F 7.8 °F 1013.1 in Calm     82 % 0.0 in 207.0 W/m2 CLR
08:33 11.1 °F 8.2 °F 1013.1 in Calm     82 % 0.0 in 223.0 W/m2 CLR
08:38 11.6 °F 8.2 °F 1013.1 in Calm     80 % 0.0 in 241.0 W/m2 CLR
08:43 11.8 °F 8.3 °F 1012.8 in Calm     79 % 0.0 in 257.0 W/m2 CLR
08:48 12.2 °F 8.4 °F 1012.8 in Calm     78 % 0.0 in 271.0 W/m2 CLR
08:53 12.5 °F 8.8 °F 1012.8 in Calm     78 % 0.0 in 290.0 W/m2 CLR
08:58 12.9 °F 8.8 °F 1012.8 in Calm     76 % 0.0 in 308.0 W/m2 CLR
09:03 13.2 °F 9.0 °F 1012.8 in Calm     76 % 0.0 in 294.0 W/m2 CLR
09:08 13.4 °F 8.8 °F 1012.4 in Calm     74 % 0.0 in 334.0 W/m2 CLR
09:13 13.7 °F 9.1 °F 1012.4 in Calm     74 % 0.0 in 355.0 W/m2 CLR
09:18 14.0 °F 9.4 °F 1012.4 in Calm     74 % 0.0 in 357.0 W/m2 CLR
09:23 14.4 °F 9.9 °F 1012.4 in Calm     74 % 0.0 in 388.0 W/m2 CLR
09:28 14.8 °F 9.8 °F 1012.4 in Calm     72 % 0.0 in 323.0 W/m2 CLR
09:33 15.2 °F 10.2 °F 1012.4 in Calm     72 % 0.0 in 137.0 W/m2 CLR
09:38 15.4 °F 9.9 °F 1012.4 in Calm     70 % 0.0 in 439.0 W/m2 CLR
09:43 15.6 °F 10.2 °F 1012.1 in Calm     70 % 0.0 in 434.0 W/m2 CLR
09:48 15.7 °F 10.3 °F 1012.1 in Calm     70 % 0.0 in 366.0 W/m2 CLR
09:53 15.9 °F 10.2 °F 1012.1 in Calm     69 % 0.0 in 483.0 W/m2 CLR
09:58 16.2 °F 9.6 °F 1012.1 in Calm     65 % 0.0 in 499.0 W/m2 CLR
10:03 16.6 °F 9.6 °F 1012.1 in Calm     63 % 0.0 in 515.0 W/m2 CLR
10:08 16.9 °F 8.9 °F 1012.1 in Calm     59 % 0.0 in 533.0 W/m2 CLR
10:13 17.1 °F 9.8 °F 1011.7 in Calm     62 % 0.0 in 541.0 W/m2 CLR
10:18 17.4 °F 10.1 °F 1011.7 in Calm     62 % 0.0 in 559.0 W/m2 CLR
10:23 17.6 °F 10.5 °F 1012.1 in Calm     63 % 0.0 in 575.0 W/m2 CLR
10:28 17.8 °F 10.4 °F 1012.1 in Calm     62 % 0.0 in 589.0 W/m2 CLR
10:33 17.8 °F 10.7 °F 1012.1 in ENE 5.6 mph 5.6 mph 63 % 0.0 in 605.0 W/m2 CLR
10:38 18.2 °F 11.1 °F 1011.7 in ENE 9.3 mph 9.3 mph 63 % 0.0 in 626.0 W/m2 CLR
10:43 18.4 °F 10.7 °F 1011.7 in NE 5.6 mph   61 % 0.0 in 568.0 W/m2 CLR
10:48 18.6 °F 10.6 °F 1011.7 in North 7.4 mph 7.4 mph 60 % 0.0 in 654.0 W/m2 CLR
10:53 18.8 °F 11.1 °F 1011.7 in ENE 6.4 mph 6.4 mph 61 % 0.0 in 680.0 W/m2 CLR
10:58 18.9 °F 11.0 °F 1012.1 in ENE 5.6 mph 5.6 mph 60 % 0.0 in 693.0 W/m2 CLR
11:03 19.2 °F 11.3 °F 1011.7 in ENE 4.8 mph 4.8 mph 60 % 0.0 in 585.0 W/m2 CLR
11:08 19.3 °F 11.1 °F 1011.7 in East 11.1 mph 11.1 mph 59 % 0.0 in 689.0 W/m2 CLR
11:13 19.4 °F 10.9 °F 1011.7 in NNE 7.4 mph 7.4 mph 58 % 0.0 in 752.0 W/m2 CLR
11:18 19.4 °F 10.4 °F 1011.7 in ENE 9.3 mph 9.3 mph 56 % 0.0 in 698.0 W/m2 CLR
11:23 19.3 °F 10.6 °F 1011.7 in NNE 9.3 mph 9.3 mph 57 % 0.0 in 592.0 W/m2 CLR
11:28 19.4 °F 10.4 °F 1011.7 in NE 5.6 mph 5.6 mph 56 % 0.0 in 650.0 W/m2 CLR
11:34 19.7 °F 10.4 °F 1011.7 in NNE 11.1 mph 11.1 mph 55 % 0.0 in 758.0 W/m2 CLR
11:39 19.9 °F 10.1 °F 1011.7 in NE 8.0 mph 8.0 mph 53 % 0.0 in 789.0 W/m2 CLR
11:44 20.2 °F 10.6 °F 1011.7 in NE 13.0 mph 13.0 mph 54 % 0.0 in 795.0 W/m2 CLR
11:49 20.4 °F 10.5 °F 1011.7 in NE 13.0 mph 13.0 mph 53 % 0.0 in 758.0 W/m2 CLR
11:54 20.7 °F 10.4 °F 1011.7 in ENE 9.3 mph 9.3 mph 52 % 0.0 in 796.0 W/m2 CLR
11:59 20.8 °F 10.6 °F 1011.4 in NE 16.7 mph 16.7 mph 52 % 0.0 in 812.0 W/m2 CLR
12:04 21.0 °F 10.8 °F 1011.7 in NNE 14.8 mph 14.8 mph 52 % 0.0 in 807.0 W/m2 CLR
12:09 21.1 °F 10.5 °F 1011.4 in North 9.3 mph 9.3 mph 51 % 0.0 in 800.0 W/m2 CLR
12:14 21.3 °F 11.0 °F 1011.4 in Calm     52 % 0.0 in 816.0 W/m2 CLR
12:19 21.6 °F 11.1 °F 1011.4 in NNE 9.3 mph 9.3 mph 51 % 0.0 in 830.0 W/m2 CLR
12:24 21.7 °F 11.1 °F 1011.1 in ENE 7.4 mph 7.4 mph 51 % 0.0 in 853.0 W/m2 CLR
12:29 22.1 °F 11.4 °F 1011.1 in ENE 5.6 mph 5.6 mph 51 % 0.0 in 856.0 W/m2 CLR
12:34 22.3 °F 11.3 °F 1011.1 in NE 16.7 mph 16.7 mph 50 % 0.0 in 854.0 W/m2 CLR
12:39 22.3 °F 11.4 °F 1011.1 in NE 11.1 mph 11.1 mph 50 % 0.0 in 865.0 W/m2 CLR
12:44 22.5 °F 11.6 °F 1011.1 in ENE 9.3 mph 9.3 mph 50 % 0.0 in 870.0 W/m2 CLR
12:49 22.7 °F 11.4 °F 1010.7 in ESE 11.1 mph 11.1 mph 49 % 0.0 in 882.0 W/m2 CLR
12:54 22.8 °F 11.6 °F 1011.1 in NE 14.8 mph 14.8 mph 49 % 0.0 in 874.0 W/m2 CLR
12:59 23.0 °F 11.4 °F 1010.7 in ENE 7.4 mph 7.4 mph 48 % 0.0 in 884.0 W/m2 CLR
13:04 23.2 °F 11.6 °F 1010.7 in East 3.7 mph 3.7 mph 48 % 0.0 in 888.0 W/m2 CLR
13:09 23.4 °F 11.5 °F 1010.7 in East 3.7 mph 3.7 mph 47 % 0.0 in 812.0 W/m2 CLR
13:14 23.6 °F 11.6 °F 1010.7 in ENE 5.6 mph 5.6 mph 47 % 0.0 in 893.0 W/m2 CLR
13:19 23.8 °F 11.8 °F 1010.4 in NNE 13.0 mph 13.0 mph 47 % 0.0 in 893.0 W/m2 CLR
13:24 23.9 °F 11.6 °F 1010.4 in ENE 5.6 mph 5.6 mph 46 % 0.0 in 900.0 W/m2 CLR
13:29 24.0 °F 11.7 °F 1010.4 in ENE 5.6 mph 5.6 mph 46 % 0.0 in 902.0 W/m2 CLR
13:34 24.1 °F 11.7 °F 1010.4 in ENE 16.7 mph 16.7 mph 46 % 0.0 in 907.0 W/m2 CLR
13:39 23.9 °F 11.2 °F 1010.0 in SE 9.3 mph 9.3 mph 45 % 0.0 in 909.0 W/m2 CLR
13:44 23.7 °F 11.3 °F 1010.0 in East 9.3 mph 9.3 mph 46 % 0.0 in 907.0 W/m2 CLR
13:49 23.7 °F 11.7 °F 1009.7 in NE 11.1 mph 11.1 mph 47 % 0.0 in 909.0 W/m2 CLR
13:54 24.1 °F 12.1 °F 1009.7 in ENE 13.0 mph 13.0 mph 47 % 0.0 in 907.0 W/m2 CLR
13:59 24.3 °F 11.6 °F 1009.7 in East 9.3 mph 9.3 mph 45 % 0.0 in 909.0 W/m2 CLR
14:04 24.4 °F 12.0 °F 1009.7 in ENE 9.3 mph 9.3 mph 46 % 0.0 in 909.0 W/m2 CLR
14:09 24.3 °F 11.6 °F 1009.7 in ENE 13.0 mph 13.0 mph 45 % 0.0 in 909.0 W/m2 CLR
14:14 24.4 °F 11.7 °F 1009.7 in Calm     45 % 0.0 in 904.0 W/m2 CLR
14:19 24.9 °F 12.5 °F 1009.7 in ENE 14.5 mph 14.5 mph 46 % 0.0 in 909.0 W/m2 CLR
14:24 25.1 °F 12.0 °F 1009.4 in East 1.9 mph   44 % 0.0 in 907.0 W/m2 CLR
14:29 25.3 °F 11.8 °F 1009.4 in East 18.5 mph 18.5 mph 43 % 0.0 in 907.0 W/m2 CLR
14:34 24.9 °F 11.8 °F 1009.4 in NNE 5.6 mph 5.6 mph 44 % 0.0 in 902.0 W/m2 CLR
14:39 25.3 °F 12.2 °F 1009.4 in East 13.0 mph 13.0 mph 44 % 0.0 in 904.0 W/m2 CLR
14:44 25.2 °F 12.1 °F 1009.4 in ESE 13.0 mph 13.0 mph 44 % 0.0 in 907.0 W/m2 CLR
14:49 25.4 °F 12.2 °F 1009.4 in ENE 5.6 mph 5.6 mph 44 % 0.0 in 904.0 W/m2 CLR
14:54 25.5 °F 12.0 °F 1009.4 in ESE 16.1 mph 16.1 mph 43 % 0.0 in 809.0 W/m2 CLR
14:59 25.4 °F 11.9 °F 1009.4 in NE 3.7 mph   43 % 0.0 in 902.0 W/m2 CLR
15:04 25.5 °F 11.7 °F 1009.4 in East 13.0 mph 13.0 mph 42 % 0.0 in 918.0 W/m2 CLR
15:09 25.6 °F 12.1 °F 1009.4 in SE 14.8 mph 14.8 mph 43 % 0.0 in 928.0 W/m2 CLR
15:14 25.7 °F 12.2 °F 1009.0 in East 5.6 mph 5.6 mph 43 % 0.0 in 893.0 W/m2 CLR
15:19 26.1 °F 12.5 °F 1009.0 in ENE 13.0 mph 13.0 mph 43 % 0.0 in 875.0 W/m2 CLR
15:24 26.3 °F 12.7 °F 1009.0 in NE 16.7 mph 16.7 mph 43 % 0.0 in 865.0 W/m2 CLR
15:29 26.3 °F 12.7 °F 1009.0 in ENE 14.8 mph 14.8 mph 43 % 0.0 in 830.0 W/m2 CLR
15:34 26.3 °F 12.4 °F 1009.0 in ENE 19.3 mph 19.3 mph 42 % 0.0 in 840.0 W/m2 CLR
15:39 26.3 °F 12.7 °F 1009.0 in ENE 9.3 mph 9.3 mph 43 % 0.0 in 798.0 W/m2 CLR
15:44 26.0 °F 12.8 °F 1009.0 in ESE 13.0 mph 13.0 mph 44 % 0.0 in 733.0 W/m2 CLR
15:49 25.7 °F 12.9 °F 1009.0 in ESE 11.1 mph 11.1 mph 45 % 0.0 in 689.0 W/m2 CLR
15:54 25.9 °F 13.1 °F 1009.0 in ESE 11.1 mph 11.1 mph 45 % 0.0 in 809.0 W/m2 CLR
15:59 26.0 °F 12.8 °F 1009.0 in East 9.3 mph 9.3 mph 44 % 0.0 in 721.0 W/m2 CLR
16:04 25.8 °F 12.9 °F 1009.0 in ENE 11.1 mph 11.1 mph 45 % 0.0 in 812.0 W/m2 CLR
16:09 25.9 °F 13.4 °F 1008.7 in NE 11.1 mph 11.1 mph 46 % 0.0 in 728.0 W/m2 CLR
16:14 26.1 °F 12.9 °F 1008.7 in East 16.7 mph 16.7 mph 44 % 0.0 in 773.0 W/m2 CLR
16:19 26.3 °F 13.1 °F 1008.7 in ENE 14.8 mph 14.8 mph 44 % 0.0 in 756.0 W/m2 CLR
16:24 26.4 °F 12.8 °F 1008.7 in ESE 13.0 mph 13.0 mph 43 % 0.0 in 724.0 W/m2 CLR
16:29 26.2 °F 13.3 °F 1008.7 in ENE 14.8 mph 14.8 mph 45 % 0.0 in 663.0 W/m2 CLR
16:34 26.2 °F 13.3 °F 1008.7 in ENE 14.8 mph 14.8 mph 45 % 0.0 in 608.0 W/m2 CLR
16:40 26.1 °F 12.8 °F 1008.7 in East 5.6 mph 5.6 mph 44 % 0.0 in 649.0 W/m2 CLR
16:45 26.2 °F 12.9 °F 1008.7 in East 8.0 mph 8.0 mph 44 % 0.0 in 684.0 W/m2 CLR
16:50 26.3 °F 13.1 °F 1008.7 in ENE 12.9 mph 12.9 mph 44 % 0.0 in 698.0 W/m2 CLR
16:55 26.2 °F 12.7 °F 1008.7 in ESE 9.3 mph 9.3 mph 43 % 0.0 in 712.0 W/m2 CLR
17:00 26.2 °F 12.6 °F 1008.7 in ENE 7.4 mph 7.4 mph 43 % 0.0 in 643.0 W/m2 CLR
17:05 26.1 °F 12.8 °F 1008.7 in ESE 18.5 mph 18.5 mph 44 % 0.0 in 707.0 W/m2 CLR
17:10 25.9 °F 12.7 °F 1008.7 in ESE 18.5 mph 18.5 mph 44 % 0.0 in 647.0 W/m2 CLR
17:15 25.6 °F 12.4 °F 1008.7 in East 11.1 mph 11.1 mph 44 % 0.0 in 376.0 W/m2 CLR
17:20 25.4 °F 13.0 °F 1008.7 in ESE 13.0 mph 13.0 mph 46 % 0.0 in 364.0 W/m2 CLR
17:25 25.3 °F 12.9 °F 1008.7 in ESE 11.3 mph 11.6 mph 46 % 0.0 in 394.0 W/m2 CLR
17:30 25.1 °F 12.7 °F 1008.7 in East 14.8 mph 14.8 mph 46 % 0.0 in 396.0 W/m2 CLR
17:35 25.0 °F 12.9 °F 1008.7 in East 14.8 mph 14.8 mph 47 % 0.0 in 455.0 W/m2 CLR
17:40 24.9 °F 12.8 °F 1008.7 in ENE 9.3 mph 9.3 mph 47 % 0.0 in 313.0 W/m2 CLR
17:45 24.8 °F 12.8 °F 1008.7 in East 9.3 mph 9.3 mph 47 % 0.0 in 278.0 W/m2 CLR
17:50 24.7 °F 12.7 °F 1009.0 in East 9.3 mph 9.3 mph 47 % 0.0 in 253.0 W/m2 CLR
17:55 24.6 °F 13.2 °F 1009.0 in ENE 17.7 mph 17.7 mph 49 % 0.0 in 666.0 W/m2 CLR
18:00 24.9 °F 13.2 °F 1009.0 in ESE 11.1 mph 11.1 mph 48 % 0.0 in 671.0 W/m2 CLR
18:05 24.9 °F 13.5 °F 1009.0 in ESE 16.7 mph 16.7 mph 49 % 0.0 in 613.0 W/m2 CLR
18:10 24.6 °F 13.1 °F 1009.0 in East 13.0 mph 13.0 mph 49 % 0.0 in 594.0 W/m2 CLR
18:15 24.5 °F 13.1 °F 1009.0 in East 11.1 mph 11.1 mph 49 % 0.0 in 466.0 W/m2 CLR
18:20 24.3 °F 13.5 °F 1009.4 in ESE 9.3 mph 9.3 mph 51 % 0.0 in 309.0 W/m2 CLR
18:25 24.0 °F 13.6 °F 1009.4 in ESE 8.0 mph 8.0 mph 52 % 0.0 in 246.0 W/m2 CLR
18:30 23.7 °F 13.2 °F 1009.4 in ESE 7.4 mph 7.4 mph 52 % 0.0 in 244.0 W/m2 CLR
18:35 23.5 °F 13.1 °F 1009.4 in ESE 9.3 mph 9.3 mph 52 % 0.0 in 306.0 W/m2 CLR
18:40 23.3 °F 12.9 °F 1009.4 in SE 11.1 mph 11.1 mph 52 % 0.0 in 239.0 W/m2 CLR
18:45 23.1 °F 13.0 °F 1009.4 in ESE 11.3 mph 11.3 mph 53 % 0.0 in 207.0 W/m2 CLR
18:50 22.8 °F 13.1 °F 1009.4 in East 11.1 mph 11.1 mph 54 % 0.0 in 223.0 W/m2 CLR
18:55 22.6 °F 13.1 °F 1009.4 in ESE 13.0 mph 13.0 mph 55 % 0.0 in 211.0 W/m2 CLR
19:00 22.2 °F 13.2 °F 1009.4 in Calm     57 % 0.0 in 178.0 W/m2 CLR
19:05 21.9 °F 13.3 °F 1009.4 in ENE 9.3 mph 9.3 mph 58 % 0.0 in 151.0 W/m2 CLR
19:10 21.8 °F 13.4 °F 1009.0 in ENE 5.6 mph 5.6 mph 59 % 0.0 in 128.0 W/m2 CLR
19:15 21.8 °F 13.2 °F 1009.0 in East 1.9 mph 1.9 mph 58 % 0.0 in 120.0 W/m2 CLR
19:20 21.8 °F 13.2 °F 1009.0 in ESE 5.6 mph 5.6 mph 58 % 0.0 in 111.0 W/m2 CLR
19:21 21.8 °F 13.2 °F 1009.0 in East 5.6 mph 5.6 mph 58 % 0.0 in 107.0 W/m2 CLR
19:26 21.7 °F 13.1 °F 1009.0 in East 4.8 mph 4.8 mph 58 % 0.0 in 97.0 W/m2 CLR
19:31 21.7 °F 13.1 °F 1009.0 in East 8.0 mph 8.0 mph 58 % 0.0 in 84.0 W/m2 CLR
19:37 21.5 °F 13.2 °F 1009.0 in East 11.1 mph 11.1 mph 59 % 0.0 in 70.0 W/m2 CLR
19:42 21.3 °F 13.0 °F 1009.0 in ESE 9.7 mph 9.7 mph 59 % 0.0 in 62.0 W/m2 FEW
19:47 21.2 °F 13.1 °F 1009.0 in East 9.3 mph 9.3 mph 60 % 0.0 in 60.0 W/m2 SCT
19:52 21.0 °F 12.9 °F 1009.0 in East 7.4 mph 7.4 mph 60 % 0.0 in 56.0 W/m2 SCT
19:57 20.9 °F 12.9 °F 1009.0 in Calm     60 % 0.0 in 53.0 W/m2 SCT
20:02 20.9 °F 12.8 °F 1009.4 in Calm     60 % 0.0 in 46.0 W/m2 SCT
20:07 20.9 °F 13.1 °F 1009.4 in Calm     61 % 0.0 in 39.0 W/m2 BKN
20:12 20.7 °F 12.9 °F 1009.4 in Calm     61 % 0.0 in 33.0 W/m2 BKN
20:17 20.6 °F 12.8 °F 1009.4 in Calm     61 % 0.0 in 28.0 W/m2 BKN
20:22 20.4 °F 12.9 °F 1009.4 in Calm     62 % 0.0 in 26.0 W/m2 BKN
20:27 20.3 °F 13.1 °F 1009.7 in Calm     63 % 0.0 in 23.0 W/m2 BKN
20:32 20.1 °F 13.1 °F 1009.7 in Calm     64 % 0.0 in 19.0 W/m2 BKN
20:37 19.8 °F 13.1 °F 1009.7 in Calm     65 % 0.0 in 14.0 W/m2 BKN
20:42 19.7 °F 12.9 °F 1009.7 in Calm     65 % 0.0 in 9.0 W/m2 BKN
20:47 19.5 °F 12.7 °F 1009.7 in ESE 3.7 mph   65 % 0.0 in 5.0 W/m2 OVC
20:52 19.4 °F 12.6 °F 1009.7 in Calm     65 % 0.0 in 0.0 W/m2 OVC
20:57 19.3 °F 12.6 °F 1009.7 in Calm     65 % 0.0 in 0.0 W/m2 OVC
21:02 19.2 °F 12.7 °F 1009.7 in Calm     66 % 0.0 in 0.0 W/m2 CLR
21:07 19.2 °F 12.7 °F 1009.7 in Calm     66 % 0.0 in 0.0 W/m2 CLR
21:12 19.1 °F 12.6 °F 1009.7 in Calm     66 % 0.0 in 0.0 W/m2 CLR
21:17 19.0 °F 12.5 °F 1010.0 in Calm     66 % 0.0 in 0.0 W/m2 CLR
21:22 19.0 °F 12.5 °F 1010.0 in Calm     66 % 0.0 in 0.0 W/m2 CLR
21:27 19.0 °F 12.5 °F 1010.0 in Calm     66 % 0.0 in 0.0 W/m2 CLR
21:32 18.9 °F 12.4 °F 1010.0 in Calm     66 % 0.0 in 0.0 W/m2 CLR
21:37 18.8 °F 12.5 °F 1010.0 in Calm     67 % 0.0 in 0.0 W/m2 CLR
21:42 18.6 °F 12.3 °F 1010.4 in Calm     67 % 0.0 in 0.0 W/m2 CLR
21:47 18.3 °F 12.3 °F 1010.4 in Calm     68 % 0.0 in 0.0 W/m2 CLR
21:52 18.2 °F 12.2 °F 1010.4 in Calm     68 % 0.0 in 0.0 W/m2 CLR
21:57 18.0 °F 12.2 °F 1010.7 in Calm     69 % 0.0 in 0.0 W/m2 CLR
22:02 17.9 °F 12.1 °F 1010.7 in Calm     69 % 0.0 in 0.0 W/m2 CLR
22:07 17.8 °F 12.2 °F 1010.7 in Calm     70 % 0.0 in 0.0 W/m2 CLR
22:12 17.7 °F 12.1 °F 1010.7 in Calm     70 % 0.0 in 0.0 W/m2 CLR
22:17 17.6 °F 12.2 °F 1010.7 in Calm     71 % 0.0 in 0.0 W/m2 CLR
22:22 17.4 °F 12.1 °F 1010.7 in Calm     71 % 0.0 in 0.0 W/m2 CLR
22:27 17.3 °F 12.2 °F 1011.1 in Calm     72 % 0.0 in 0.0 W/m2 CLR
22:32 17.2 °F 12.1 °F 1011.1 in Calm     72 % 0.0 in 0.0 W/m2 CLR
22:37 17.0 °F 12.1 °F 1011.1 in Calm     73 % 0.0 in 0.0 W/m2 CLR
22:42 16.9 °F 12.2 °F 1011.1 in Calm     74 % 0.0 in 0.0 W/m2 CLR
22:47 16.8 °F 12.1 °F 1011.1 in Calm     74 % 0.0 in 0.0 W/m2 CLR
22:52 16.7 °F 12.2 °F 1011.1 in Calm     75 % 0.0 in 0.0 W/m2 CLR
22:57 16.7 °F 12.2 °F 1011.1 in Calm     75 % 0.0 in 0.0 W/m2 CLR
23:02 16.7 °F 12.2 °F 1011.1 in Calm     75 % 0.0 in 0.0 W/m2 CLR
23:07 16.7 °F 12.2 °F 1011.1 in Calm     75 % 0.0 in 0.0 W/m2 CLR
23:12 16.6 °F 12.2 °F 1011.1 in Calm     75 % 0.0 in 0.0 W/m2 CLR
23:17 16.6 °F 12.2 °F 1011.4 in East 7.4 mph 7.4 mph 75 % 0.0 in 0.0 W/m2 CLR
23:22 16.6 °F 12.3 °F 1011.1 in Calm     76 % 0.0 in 0.0 W/m2 CLR
23:27 16.5 °F 12.3 °F 1011.1 in Calm     76 % 0.0 in 0.0 W/m2 CLR
23:33 16.5 °F 12.3 °F 1011.1 in ESE 9.7 mph 9.7 mph 76 % 0.0 in 0.0 W/m2 CLR
23:38 16.5 °F 12.3 °F 1010.7 in SE 9.3 mph 9.3 mph 76 % 0.0 in 0.0 W/m2 CLR
23:43 16.4 °F 12.3 °F 1010.7 in ESE 5.6 mph 5.6 mph 77 % 0.0 in 0.0 W/m2 CLR
23:48 16.4 °F 12.3 °F 1010.7 in ESE 11.1 mph 11.1 mph 77 % 0.0 in 0.0 W/m2 CLR
23:53 16.4 °F 12.3 °F 1010.7 in SE 7.4 mph 7.4 mph 77 % 0.0 in 0.0 W/m2 CLR
23:58 16.4 °F 12.3 °F 1010.7 in SE 9.3 mph 9.3 mph 77 % 0.0 in 0.0 W/m2 CLR
Lo Temps de Massalio
Compliments of Weather Underground - 1.25 mb